Weather History for Kimball, NE

Change the Weather History Date:

Tuesday, February 12, 2013

  Actual Average (KSNY) Record (KSNY)
Temperature  
Mean Temperature 20 °F 31 °F  
Max Temperature 36 °F 44 °F 71 °F (1961)
Min Temperature 5 °F 18 °F -12 °F (1986)
Degree Days  
Heating Degree Days 44 34  
Month to date heating degree days 416  
Since 1 July heating degree days 4073  
Cooling Degree Days 0 0  
Month to date cooling degree days 0  
Year to date cooling degree days 0  
Moisture  
Dew Point 9 °F    
Average Humidity 57    
Maximum Humidity 84    
Minimum Humidity 33    
Precipitation  
Precipitation 0.00 in 0.00 in 0.10 in (2007)
Month to date precipitation 0.10  
Year to date precipitation 0.30  
Sea Level Pressure  
Sea Level Pressure 29.97 in    
Wind  
Wind Speed 14 mph (WNW)    
Max Wind Speed 24 mph    
Max Gust Speed 30 mph    
Visibility 10 miles    
Events      
T = Trace of Precipitation, MM = Missing Value Source: NWS Daily Summary

Daily Weather History Graph

Daily Weather History Graph

Search for Another Location

Airport:

Trip Planner

Search our weather history database for the weather conditions in past years. The results will help you decide how hot, cold, wet, or windy it might be!

Date:

Astronomy

Feb. 12, 2013 Rise Set
Actual Time 7:52 AM CST 6:25 PM CST
Civil Twilight 7:24 AM CST 6:54 PM CST
Nautical Twilight 6:52 AM CST 7:26 PM CST
Astronomical Twilight 6:20 AM CST 7:58 PM CST
Moon 8:49 AM CST (2/12) 9:31 PM CST (2/12)
Length of Visible Light 11h 29m
Length of Day
10h 32m
Waxing Crescent, 7% of the Moon is Illuminated
Feb 12
Waxing Crescent
Feb 17
First Quarter
Feb 25
Full
Mar 4
Last Quarter
Mar 11
New

Hourly Weather History & Observations

Time (CST) Temp. Windchill Dew Point Humidity Pressure Visibility Wind Dir Wind Speed Gust Speed Precip Events Conditions
12:15 AM 11.1 °F -2.4 °F 6.8 °F 83% 29.97 in 10.0 mi West 10.4 mph - N/A   Clear
12:35 AM 11.3 °F -2.2 °F 6.8 °F 82% 29.98 in 10.0 mi WSW 10.4 mph - N/A   Clear
12:55 AM 9.7 °F -2.4 °F 5.7 °F 84% 29.98 in 10.0 mi West 8.1 mph - N/A   Clear
1:15 AM 10.4 °F -1.5 °F 5.7 °F 81% 29.98 in 10.0 mi West 8.1 mph - N/A   Clear
1:35 AM 9.3 °F 1.0 °F 4.8 °F 82% 29.98 in 10.0 mi West 4.6 mph - N/A   Clear
1:55 AM 11.3 °F -2.2 °F 5.9 °F 79% 29.98 in 10.0 mi West 10.4 mph - N/A   Clear
2:15 AM 10.6 °F -1.3 °F 4.6 °F 77% 29.97 in 10.0 mi West 8.1 mph - N/A   Clear
2:35 AM 8.4 °F -0.1 °F 2.8 °F 78% 29.97 in 10.0 mi WNW 4.6 mph - N/A   Clear
2:55 AM 10.6 °F -3.1 °F 2.8 °F 71% 29.97 in 10.0 mi West 10.4 mph - N/A   Clear
3:15 AM 8.4 °F -4.9 °F 1.4 °F 73% 29.97 in 10.0 mi West 9.2 mph - N/A   Clear
3:35 AM 8.2 °F -6.0 °F 1.2 °F 73% 29.96 in 10.0 mi West 10.4 mph - N/A   Clear
3:55 AM 8.1 °F -7.7 °F 0.9 °F 72% 29.96 in 10.0 mi WNW 12.7 mph - N/A   Clear
4:15 AM 5.9 °F -10.5 °F -0.8 °F 74% 29.96 in 10.0 mi WNW 12.7 mph - N/A   Clear
4:35 AM 9.3 °F -7.4 °F 0.5 °F 67% 29.96 in 10.0 mi West 15.0 mph - N/A   Clear
4:55 AM 10.9 °F -5.4 °F 1.4 °F 65% 29.96 in 10.0 mi West 15.0 mph - N/A   Clear
5:15 AM 12.2 °F -3.1 °F 1.9 °F 64% 29.96 in 10.0 mi West 13.8 mph - N/A   Clear
5:35 AM 12.2 °F -3.1 °F 1.9 °F 64% 29.96 in 10.0 mi West 13.8 mph - N/A   Clear
5:55 AM 12.0 °F -2.7 °F 1.8 °F 64% 29.96 in 10.0 mi West 12.7 mph - N/A   Clear
6:15 AM 12.2 °F -1.8 °F 1.9 °F 64% 29.96 in 10.0 mi West 11.5 mph - N/A   Clear
6:35 AM 12.2 °F -2.5 °F 2.1 °F 64% 29.96 in 10.0 mi West 12.7 mph - N/A   Clear
6:55 AM 13.1 °F -1.4 °F 2.3 °F 62% 29.95 in 10.0 mi West 12.7 mph - N/A   Clear
7:15 AM 12.2 °F -3.7 °F 2.3 °F 65% 29.95 in 10.0 mi West 15.0 mph - N/A   Clear
7:35 AM 13.1 °F -3.1 °F 2.7 °F 63% 29.96 in 10.0 mi WNW 16.1 mph - N/A   Clear
7:55 AM 12.9 °F -3.9 °F 2.3 °F 63% 29.96 in 10.0 mi WNW 17.3 mph - N/A   Clear
8:15 AM 15.8 °F -0.6 °F 3.6 °F 59% 29.97 in 10.0 mi WNW 18.4 mph 24.2 mph N/A   Clear
8:35 AM 17.2 °F 2.7 °F 4.3 °F 57% 29.98 in 10.0 mi West 15.0 mph - N/A   Clear
8:55 AM 18.1 °F 4.4 °F 5.0 °F 57% 29.98 in 10.0 mi West 13.8 mph - N/A   Clear
9:15 AM 21.6 °F 7.8 °F 7.7 °F 55% 29.98 in 10.0 mi WNW 16.1 mph 20.7 mph N/A   Clear
9:35 AM 23.7 °F 10.1 °F 9.0 °F 53% 29.98 in 10.0 mi WNW 17.3 mph 23.0 mph N/A   Clear
9:55 AM 25.9 °F 11.1 °F 9.1 °F 49% 29.98 in 10.0 mi WNW 23.0 mph 28.8 mph N/A   Clear
10:15 AM 27.3 °F 13.6 °F 9.7 °F 48% 29.98 in 10.0 mi WNW 20.7 mph 28.8 mph N/A   Clear
10:35 AM 28.6 °F 15.3 °F 10.6 °F 47% 29.98 in 10.0 mi NW 20.7 mph 29.9 mph N/A   Clear
10:55 AM 29.5 °F 15.5 °F 10.0 °F 44% 29.98 in 10.0 mi WNW 24.2 mph 29.9 mph N/A   Clear
11:15 AM 30.6 °F 17.6 °F 10.6 °F 43% 29.98 in 10.0 mi NW 21.9 mph 27.6 mph N/A   Clear
11:35 AM 31.6 °F 19.0 °F 11.8 °F 44% 29.98 in 10.0 mi WNW 21.9 mph 28.8 mph N/A   Clear
11:55 AM 32.4 °F 19.7 °F 11.3 °F 42% 29.98 in 10.0 mi WNW 23.0 mph 29.9 mph N/A   Clear
12:15 PM 33.1 °F 20.9 °F 10.6 °F 39% 29.98 in 10.0 mi NW 21.9 mph 25.3 mph N/A   Clear
12:35 PM 33.6 °F 21.9 °F 11.5 °F 40% 29.98 in 10.0 mi NW 20.7 mph 27.6 mph N/A   Clear
12:55 PM 34.0 °F 22.1 °F 10.0 °F 37% 29.97 in 10.0 mi NW 21.9 mph 28.8 mph N/A   Clear
1:15 PM 35.1 °F 24.1 °F 11.1 °F 37% 29.96 in 10.0 mi NW 19.6 mph 26.5 mph N/A   Clear
1:35 PM 35.8 °F 25.1 °F 10.2 °F 35% 29.96 in 10.0 mi NW 19.6 mph 29.9 mph N/A   Clear
1:55 PM 35.8 °F 24.2 °F 10.9 °F 36% 29.96 in 10.0 mi NW 23.0 mph 29.9 mph N/A   Clear
2:15 PM 36.1 °F 25.2 °F 11.7 °F 36% 29.95 in 10.0 mi NNW 20.7 mph 26.5 mph N/A   Clear
2:35 PM 36.5 °F 25.4 °F 9.9 °F 33% 29.96 in 10.0 mi NW 21.9 mph 27.6 mph N/A   Clear
2:55 PM 36.5 °F 25.4 °F 10.6 °F 34% 29.96 in 10.0 mi NW 21.9 mph 28.8 mph N/A   Clear
3:15 PM 36.3 °F 25.2 °F 10.2 °F 34% 29.96 in 10.0 mi NW 21.9 mph 28.8 mph N/A   Clear
3:35 PM 36.5 °F 25.2 °F 10.6 °F 34% 29.96 in 10.0 mi NNW 23.0 mph 28.8 mph N/A   Clear
3:55 PM 36.1 °F 24.7 °F 11.3 °F 36% 29.96 in 10.0 mi NW 23.0 mph 28.8 mph N/A   Clear
4:15 PM 35.8 °F 23.9 °F 11.5 °F 37% 29.97 in 10.0 mi NW 24.2 mph 29.9 mph N/A   Clear
4:35 PM 35.8 °F 24.8 °F 11.7 °F 37% 29.97 in 10.0 mi NW 20.7 mph 26.5 mph N/A   Clear
4:55 PM 35.2 °F 24.7 °F 13.5 °F 41% 29.97 in 10.0 mi NW 18.4 mph - N/A   Clear
5:15 PM 34.7 °F 24.0 °F 14.0 °F 43% 29.97 in 10.0 mi NW 18.4 mph 24.2 mph N/A   Clear
5:35 PM 34.0 °F 23.0 °F 14.0 °F 44% 29.97 in 10.0 mi NW 18.4 mph 24.2 mph N/A   Clear
5:55 PM 32.0 °F 22.5 °F 14.5 °F 49% 29.98 in 10.0 mi NW 12.7 mph 21.9 mph N/A   Clear
6:15 PM 30.4 °F 21.0 °F 15.3 °F 53% 29.97 in 10.0 mi NW 11.5 mph - N/A   Clear
6:35 PM 28.4 °F 18.5 °F 15.4 °F 58% 29.97 in 10.0 mi WNW 11.5 mph - N/A   Clear
6:55 PM 27.5 °F 16.3 °F 15.3 °F 60% 29.97 in 10.0 mi WNW 13.8 mph - N/A   Clear
7:15 PM 27.1 °F 16.4 °F 14.7 °F 60% 29.97 in 10.0 mi WNW 12.7 mph - N/A   Clear
7:35 PM 27.1 °F 14.5 °F 14.4 °F 59% 29.98 in 10.0 mi NW 17.3 mph 24.2 mph N/A   Mostly Cloudy
8:15 PM 26.2 °F 13.4 °F 13.8 °F 59% 29.98 in 10.0 mi NW 17.3 mph - N/A   Clear
8:35 PM 26.4 °F 15.0 °F 13.3 °F 58% 29.98 in 10.0 mi NW 13.8 mph - N/A   Clear
8:55 PM 25.9 °F 13.3 °F 13.3 °F 59% 29.98 in 10.0 mi NW 16.1 mph 20.7 mph N/A   Clear
9:15 PM 25.3 °F 14.1 °F 13.5 °F 61% 29.98 in 10.0 mi NW 12.7 mph - N/A   Clear
9:35 PM 25.9 °F 14.8 °F 13.6 °F 60% 29.98 in 10.0 mi NW 12.7 mph - N/A   Scattered Clouds
9:55 PM 25.9 °F 14.8 °F 13.6 °F 60% 29.98 in 10.0 mi NW 12.7 mph - N/A   Scattered Clouds
10:15 PM 24.6 °F 15.1 °F 13.5 °F 63% 29.98 in 10.0 mi WNW 9.2 mph - N/A   Scattered Clouds
10:35 PM 25.7 °F 12.3 °F 14.4 °F 62% 29.98 in 10.0 mi WNW 18.4 mph - N/A   Clear
10:55 PM 25.2 °F 12.4 °F 14.0 °F 63% 29.98 in 10.0 mi WNW 16.1 mph - N/A   Clear
11:15 PM 24.3 °F 12.2 °F 14.0 °F 65% 29.98 in 10.0 mi WNW 13.8 mph - N/A   Clear
11:35 PM 24.1 °F 13.7 °F 14.0 °F 65% 29.98 in 10.0 mi West 10.4 mph - N/A   Scattered Clouds
11:55 PM 26.1 °F 13.6 °F 15.3 °F 64% 29.98 in 10.0 mi WNW 16.1 mph 23.0 mph N/A   Overcast